Weather in Sovkhoznoye

Russia / Republic of Crimea     45°57′40″N   33°46′16″E
temp.,
°C
wind,
m/s
gust,
m/s
humid.,
%
clouds,
%
prec.,
mm/h
press.,
hPa
HPBL,
m
4 march, thu
thu400:00+4nnw23700 0.0 102823
03:00+4wsw22720 0.0 102722
06:00+3sw45790 0.0 1025109
09:00+4sw68810 0.0 1024300
12:00+7sw79640 0.0 1022480
15:00+8wsw811640 0.0 1020494
18:00+7sw8126933 0.0 1018423
21:00+5ssw8158136 0.0 1017470
5 march, fri
fri500:00+5sw915810 0.0 1016460
03:00+5sw815845 0.0 1016442
06:00+6sw7138693 0.0 1014358
09:00+7ssw7128387 0.0 1014352
12:00+10sw812720 0.0 1013407
15:00+11wsw811660 0.0 1012460
18:00+9wsw711743 0.0 1011300
21:00+7sw698151 0.0 1012205
6 march, sat
sat600:00+6sw588399 0.0 1012146
03:00+7sw598799 0.0 1013157
06:00+5nnw6118684 0.0 1013238
09:00+5nnw7108692 0.0 1016548
12:00+4n81068100 0.0 1019956
15:00+5n7945100 0.0 10211294
18:00+4n8950100 0.0 10231651
21:00+2n794651 0.0 1026968
7 march, sun
sun700:00+1nnw58510 0.0 1028659
03:00+1nw57490 0.0 1028745
06:00+1nw56530 0.0 1028441
09:00+1wnw34530 0.0 1029343
12:00+3w68490 0.0 10281343
15:00+3w910510 0.0 10251234
18:00+3w810570 0.0 10231090
21:00+3sw710607 0.0 1023637
8 march, mon
mon800:00+3sw812637 0.0 1022661
03:00+3sw8126827 0.0 1020701
06:00+3sw8127443 0.0 1018632
09:00+4sw8117556 0.1 1018773
12:00+6wsw8116889 0.2 1017892
15:00+6wsw9117094 0.4 1016825
18:00+5wsw71174100 0.2 1015699
21:00+5sw61179100 0.4 1015457